Location: Fosso Corella
(43.9167°N, 11.5667°E)
Time: 10:39:59
(UTC+00:00)

ERS-2 - Pass Details

Date: 07 June 2020
Orbit: 493 x 499 km, 98.5° (Epoch: 04 July)

Event Time Altitude Azimuth Distance (km) Brightness Sun altitude
Exits shadow 02:49:37 - 186° (S) 2,459 5.2 -6.9°
Reaches altitude 10° 02:51:32 10° 195° (SSW) 1,699 4.3 -6.6°
Maximum altitude 02:54:53 33° 261° (W) 852 2.9 -6.1°
Drops below altitude 10° 02:58:15 10° 327° (NNW) 1,712 4.9 -5.7°
Sets 03:00:29 0° 337° (NNW) 2,600 6.0 -5.4°
